Lapse_Rate
8.1 8.0 8.1 7.8 7.6 7.2 7.4 7.3 7.2 7.3 7.2 7.0 6.6 6.2 6.4 6.4 6.2 6.0 5.6 5.6 5.6 5.7 5.7 5.5 5.4 5.5 5.6 5.6 5.7 5.6 5.4 5.6 5.4 6.0 5.9 5.8 5.3 5.2 5.3 4.9 5.1 5.2 5.0
8.2 8.2 7.9 7.7 7.6 7.3 7.4 7.3 6.9 6.9 6.7 6.7 6.1 6.2 6.0 6.1 6.1 5.8 5.6 5.7 5.7 5.6 5.7 5.5 5.7 5.9 5.8 5.8 5.4 5.5 5.8 6.0 6.0 5.8 6.1 6.2 5.5 5.0 5.1 5.3 5.2 5.0 5.2
8.2 8.1 7.9 7.7 7.6 7.4 7.3 7.2 7.2 6.9 6.8 6.6 6.1 5.9 5.9 6.1 6.1 5.7 5.7 5.9 5.8 5.8 5.6 5.6 5.7 5.6 5.8 5.8 5.8 6.0 6.2 6.1 5.8 5.8 6.0 5.5 5.3 4.9 5.2 5.5 5.4 5.2 4.4
8.3 8.2 8.1 8.1 7.9 7.7 7.5 7.3 7.1 6.9 7.0 6.8 6.2 6.1 6.1 6.1 6.0 5.7 5.9 5.9 5.8 5.7 5.5 5.4 5.4 5.4 5.7 5.6 6.0 6.1 6.1 5.8 5.7 5.2 4.6 5.0 5.2 5.3 5.2 5.2 5.4 5.5 5.3
8.6 8.5 8.4 8.1 7.9 7.8 7.8 7.5 7.4 7.0 6.8 6.5 6.1 6.1 6.0 5.9 5.7 5.7 5.8 5.9 5.7 5.6 5.5 5.5 5.5 5.5 5.8 5.8 6.0 6.3 6.0 5.8 5.1 5.0 4.9 5.1 5.3 5.4 5.3 5.2 5.2 5.1 5.2
8.6 8.5 8.4 8.3 8.1 7.8 7.8 7.4 7.2 6.9 6.6 6.4 6.3 6.0 5.9 5.7 5.8 5.7 5.8 5.7 5.7 5.5 5.5 5.4 5.6 5.8 6.1 6.6 6.7 6.4 5.9 5.7 4.9 4.5 4.7 5.2 5.4 5.2 5.5 5.2 5.4 5.4 5.2
8.8 8.6 8.4 8.2 8.2 8.0 7.9 7.6 7.3 6.7 6.4 6.3 6.1 5.9 5.9 6.0 5.7 5.6 5.7 5.6 5.5 5.5 5.2 5.1 5.6 5.9 6.3 6.8 6.9 6.6 6.4 5.6 4.6 4.9 4.6 5.0 5.2 5.2 4.8 4.4 5.4 5.5 5.5
8.6 8.6 8.3 8.1 8.0 7.9 7.6 7.3 6.9 6.6 6.5 6.2 6.0 6.0 6.1 6.0 5.7 5.6 5.4 5.6 5.6 5.4 5.2 5.3 5.7 6.2 6.6 6.8 6.8 6.7 6.6 5.3 4.6 4.9 4.6 4.9 5.1 5.1 5.1 5.2 5.4 5.5 5.6
8.3 8.3 8.1 7.9 7.6 7.2 7.0 7.1 6.7 6.3 6.0 6.0 6.0 6.1 6.1 5.8 5.5 5.5 5.5 5.6 5.6 5.4 5.5 5.5 6.2 6.6 6.7 7.0 6.6 6.8 6.7 5.9 5.3 4.9 4.6 4.9 5.1 5.3 5.5 5.2 5.4 5.2 5.2
8.3 8.0 7.9 7.6 7.5 7.3 7.2 7.2 7.0 6.1 6.0 6.2 6.2 6.1 5.6 5.4 5.4 5.2 5.5 5.6 5.6 5.5 5.7 6.2 6.7 6.7 6.8 6.8 6.8 7.0 6.7 5.7 5.1 4.8 4.6 4.8 5.4 5.3 5.2 4.8 5.2 5.2 5.3
8.0 7.8 7.6 7.5 7.4 7.7 7.7 7.7 6.8 6.1 5.9 5.9 6.0 5.5 5.3 5.3 5.4 5.5 5.9 5.8 5.8 5.6 6.0 6.3 6.7 6.7 6.9 7.0 7.0 7.0 6.8 6.2 5.1 4.8 4.3 4.4 4.8 5.2 5.2 5.2 5.1 5.3 5.4
7.8 7.9 7.5 7.2 7.7 7.6 7.7 7.9 6.7 6.1 5.9 5.9 5.6 5.3 5.5 5.4 5.6 5.8 6.1 6.0 5.7 5.7 6.1 6.5 6.6 6.8 7.0 7.2 6.8 7.1 7.0 6.8 5.5 5.1 4.4 4.2 4.4 5.0 5.1 5.3 5.4 5.6 5.4
7.8 7.4 7.7 7.6 7.4 7.1 7.6 7.2 6.4 6.1 6.0 5.8 5.8 5.7 5.5 5.6 5.8 6.1 6.2 5.9 5.6 5.7 6.0 6.3 6.5 6.8 7.0 7.1 6.9 7.1 7.1 7.2 7.0 6.2 4.6 4.5 4.2 4.5 4.8 4.9 4.9 4.9 5.4
7.6 7.6 7.3 7.4 7.0 7.3 7.7 6.5 6.7 6.1 5.3 5.5 5.8 5.7 5.5 5.8 5.9 6.1 6.0 5.7 5.6 5.7 5.9 6.3 6.5 6.8 7.1 7.0 6.9 7.0 7.0 7.2 7.1 6.7 5.9 4.3 4.4 4.3 4.1 4.4 4.8 4.2 4.7
7.1 7.2 7.0 6.8 6.5 6.5 6.6 6.4 5.7 5.9 5.3 5.4 5.7 5.6 5.7 5.7 5.9 5.9 5.8 5.6 5.5 5.8 5.9 6.3 6.4 6.6 7.0 7.1 7.0 6.8 6.8 6.9 6.9 6.7 6.7 6.0 5.2 4.6 4.5 4.5 4.4 4.5 4.7
7.0 7.0 6.7 5.9 6.6 6.3 6.1 6.3 5.7 5.4 5.2 5.1 5.5 5.5 5.7 5.9 5.7 5.8 5.8 5.5 5.8 5.8 6.2 6.3 6.4 6.5 6.9 7.0 7.0 6.6 6.5 6.8 6.6 6.8 6.7 6.6 6.0 6.1 5.4 5.1 5.0 4.8 4.6
6.8 6.8 7.2 6.1 6.4 6.7 6.0 5.8 5.6 5.1 5.3 5.4 5.4 5.6 5.9 5.7 5.8 5.9 5.8 5.7 5.8 5.8 6.2 6.3 6.5 6.5 6.9 6.8 6.8 6.6 6.4 6.3 6.4 6.3 6.5 6.6 6.4 6.3 6.3 5.8 5.9 5.7 5.1
6.5 6.3 6.6 6.6 6.4 5.9 5.7 5.9 5.5 5.5 5.3 5.4 5.7 5.7 5.6 5.7 5.9 5.7 5.8 5.8 5.8 5.9 6.1 6.1 6.2 6.4 6.7 6.7 6.6 6.5 6.3 6.2 6.2 6.1 6.1 6.4 6.4 6.5 6.3 6.2 6.4 6.5 6.6
6.5 6.3 6.0 6.3 6.1 6.0 5.8 5.5 5.7 5.7 6.0 5.7 5.6 5.7 5.6 5.7 5.8 5.8 6.0 5.8 5.7 6.0 6.1 6.1 6.2 6.3 6.4 6.6 6.6 6.5 6.3 6.2 6.1 6.0 5.9 6.1 6.3 6.5 6.6 6.6 6.4 6.4 6.4
6.3 6.3 6.3 6.0 6.0 5.8 5.4 5.7 5.9 5.9 5.9 5.7 5.7 5.6 5.7 5.8 5.7 5.7 5.8 5.8 6.0 6.1 6.2 6.2 6.3 6.3 6.3 6.4 6.5 6.4 6.4 6.3 6.3 6.2 6.1 6.1 6.1 6.3 6.3 6.4 6.5 6.5 6.3
6.3 5.9 5.6 5.8 5.7 5.7 5.8 6.0 6.1 6.0 6.0 5.8 5.7 5.7 5.7 5.6 5.7 5.7 5.8 5.8 6.2 6.3 6.4 6.1 6.1 6.2 6.2 6.4 6.3 6.3 6.2 6.1 6.2 6.2 6.3 6.3 6.3 6.3 6.4 6.6 6.6 6.6 6.7
5.6 5.4 5.5 5.7 6.0 6.0 6.1 6.0 5.9 5.9 5.8 5.8 5.7 5.8 5.8 5.8 5.7 5.5 5.7 5.9 6.2 6.3 6.2 6.0 6.1 6.0 6.1 6.2 6.2 6.2 6.2 6.1 6.1 6.2 6.2 6.2 6.3 6.3 6.4 6.5 6.6 6.7 6.8
5.2 5.4 5.7 5.9 6.0 6.1 6.1 6.1 5.9 5.8 5.6 5.6 5.8 5.8 5.8 5.6 5.7 5.7 5.4 5.9 6.2 6.1 6.0 6.1 6.0 5.9 6.0 6.0 6.0 6.1 6.0 6.0 6.1 6.1 6.1 6.1 6.2 6.3 6.4 6.5 6.6 6.7 6.7
5.5 5.6 5.7 5.8 6.0 6.0 6.0 5.9 5.7 5.7 5.7 5.7 5.9 5.9 5.7 5.7 5.7 5.9 5.8 5.9 6.1 6.1 6.0 5.9 5.9 5.9 5.8 5.8 5.8 5.8 5.9 5.9 6.0 6.0 6.0 6.0 6.2 6.4 6.5 6.6 6.7 6.8 6.8
5.7 5.8 5.9 5.9 5.9 5.9 5.8 5.8 5.5 5.7 5.8 5.9 6.0 5.7 5.6 5.4 5.8 5.9 6.0 6.1 6.1 6.0 5.9 5.9 5.9 5.9 5.9 5.9 5.9 6.0 6.0 6.0 6.0 6.1 6.2 6.3 6.5 6.6 6.9 7.1 7.2 7.1 7.0
5.9 5.9 5.9 5.9 5.9 6.0 6.0 5.9 5.8 5.6 5.7 5.8 5.5 5.6 5.7 5.7 5.8 6.0 6.1 6.1 6.1 6.1 6.1 6.0 6.0 6.0 6.0 6.1 6.1 6.1 6.1 6.2 6.3 6.4 6.5 6.6 6.8 7.0 7.2 7.2 7.1 7.0 6.9
Wind_Speed
19 18 16 16 17 13 15 15 16 14 10 8 8 6 7 7 8 8 7 4 5 4 6 7 10 11 10 11 11 11 12 14 17 17 16 18 17 17 17 20 23 20 20
16 15 14 15 15 16 17 18 16 13 13 11 8 7 8 8 9 9 8 5 6 6 7 9 11 10 14 12 11 14 14 15 16 24 20 16 16 16 17 19 16 16 12
15 15 14 14 15 16 16 15 14 13 14 11 9 8 8 9 9 8 6 7 7 7 8 10 12 13 13 12 13 14 14 14 17 17 19 15 15 13 14 14 14 14 10
14 15 14 16 16 15 15 15 12 14 12 10 9 8 8 9 8 8 7 8 7 7 9 10 12 13 14 14 13 15 15 17 18 15 14 15 13 14 9 11 10 10 11
13 13 13 12 13 12 11 13 13 12 9 9 9 9 10 8 7 8 7 6 7 9 10 11 12 12 14 11 10 14 17 16 15 13 14 14 14 12 11 8 8 9 9
12 11 10 10 6 7 9 11 9 10 11 9 9 10 9 7 11 6 2 7 8 9 10 12 12 14 8 12 10 18 17 17 17 12 13 14 18 15 12 10 8 7 5
11 10 8 7 8 8 10 9 10 12 11 10 10 9 9 8 9 7 6 7 9 9 10 11 11 10 12 13 18 20 19 17 15 15 16 17 19 18 15 11 10 7 7
10 9 9 9 10 10 9 11 12 10 10 10 9 9 9 6 9 7 8 7 8 9 9 10 11 11 9 13 15 17 17 17 16 14 16 17 16 15 8 6 5 5 5
12 11 10 10 11 11 10 9 8 8 9 9 9 10 10 8 9 7 7 8 7 9 8 9 8 9 11 12 13 15 17 15 17 19 24 24 27 22 8 1 1 2 3
11 10 11 11 13 13 12 11 9 8 9 9 9 9 8 7 7 8 6 6 6 7 9 6 10 6 8 10 11 13 14 14 15 19 18 19 20 20 16 6 4 3 3
13 13 13 15 16 15 14 12 9 9 9 9 9 7 8 7 8 6 2 6 5 7 8 7 6 11 10 10 10 10 12 14 13 15 13 13 14 15 13 12 10 6 4
7 7 9 10 10 8 11 12 11 10 9 8 8 8 7 5 9 5 2 2 4 7 7 6 7 11 11 11 9 12 14 11 10 11 11 12 12 13 12 12 12 9 8
6 5 6 8 10 12 12 11 10 10 8 9 8 6 4 7 6 8 6 3 6 5 5 4 8 10 10 9 6 10 11 9 10 11 11 9 10 10 13 13 14 12 13
8 5 6 9 8 10 10 9 9 9 9 7 6 5 6 6 5 6 5 5 8 6 4 3 4 8 5 7 7 8 8 9 10 10 10 10 4 7 8 8 10 11 8
6 7 8 9 8 5 5 3 0 6 1 6 5 4 3 5 4 10 7 4 5 3 8 3 5 6 7 7 8 8 9 9 10 10 11 10 11 10 7 5 2 9 11
8 6 4 1 7 7 6 5 16 12 6 7 7 3 9 16 14 11 9 6 3 8 2 5 6 7 7 8 8 8 9 11 10 10 10 11 9 12 11 11 10 10 6
7 3 7 7 6 6 6 7 7 7 11 11 6 12 13 14 13 11 10 7 2 6 5 5 6 7 7 7 7 8 9 9 9 9 10 9 9 9 11 11 11 10 10
7 2 4 6 6 7 7 7 6 6 6 6 8 9 14 13 12 10 8 5 3 4 5 6 6 6 7 7 7 8 8 9 9 9 10 10 10 9 9 10 10 10 11
4 4 4 5 5 5 6 6 6 7 8 9 10 8 8 8 8 6 8 2 4 5 5 5 6 6 6 7 7 7 7 8 8 8 9 9 10 9 10 9 8 10 10
6 4 2 5 5 6 6 6 5 6 9 9 10 11 10 9 6 5 4 4 5 5 5 5 5 5 6 6 6 6 7 8 9 9 9 9 10 10 10 10 10 9 9
5 6 5 3 4 5 4 7 7 8 8 9 9 10 13 7 6 4 5 5 5 4 5 5 5 5 5 5 6 6 6 7 7 7 7 8 8 7 8 9 9 10 10
1 3 4 5 5 4 4 5 6 7 8 10 10 11 12 7 7 6 6 5 5 4 4 4 4 5 6 6 6 7 7 7 7 8 8 7 7 7 7 7 8 8 10
2 3 4 3 3 5 6 5 6 6 8 10 11 11 9 6 3 6 5 6 5 5 5 5 5 5 7 7 8 7 7 7 7 7 8 8 7 8 7 6 7 7 8
3 3 3 4 4 5 5 6 6 8 10 10 10 10 6 6 6 5 6 6 5 5 6 6 7 7 7 8 10 11 12 11 11 9 9 7 7 7 6 6 7 9 7
4 4 4 3 4 4 5 6 7 8 8 9 10 8 9 7 7 7 6 6 5 5 5 6 6 7 9 11 12 12 12 14 10 14 7 7 6 7 7 6 6 6 8
4 4 3 3 4 2 6 7 9 10 10 10 8 6 9 9 8 7 6 6 5 6 6 7 7 7 7 10 10 10 11 13 12 17 16 7 6 7 6 6 7 6 7
Wind_Direction
215 215 213 213 212 205 212 211 206 202 194 189 208 189 200 206 224 238 257 258 240 271 292 296 306 312 309 313 308 296 307 310 306 297 303 304 309 295 287 276 268 264 263
213 215 215 214 210 206 210 204 201 195 185 193 200 201 209 215 229 232 234 237 248 275 299 302 309 317 314 307 307 311 309 305 305 303 305 307 299 290 284 283 273 267 258
208 210 215 212 209 212 213 207 196 190 187 192 190 202 207 220 225 224 231 239 253 278 297 304 307 315 311 315 314 308 309 313 308 304 303 304 295 290 285 279 274 264 248
203 208 210 211 213 213 218 209 205 202 193 189 185 202 215 221 216 225 226 240 257 280 292 297 306 307 316 320 310 313 310 311 309 301 297 295 291 292 269 268 271 262 259
199 206 211 215 214 212 203 213 207 196 188 187 190 198 210 213 213 218 232 255 270 280 293 302 308 320 283 284 308 310 313 309 301 306 301 298 298 296 286 273 258 262 255
191 200 203 203 178 189 185 196 188 179 186 187 188 194 203 221 127 152 267 254 269 279 291 307 313 296 340 297 308 311 303 296 310 306 302 298 295 288 281 272 256 244 253
180 182 174 154 157 161 167 174 173 194 188 182 186 196 205 219 135 152 196 253 276 290 300 309 309 321 320 336 321 317 307 317 316 317 305 300 293 295 281 258 245 234 240
160 144 142 151 161 161 161 171 179 175 175 179 187 193 208 205 150 178 196 246 270 283 301 305 308 318 348 340 326 321 324 325 339 328 317 311 310 314 311 238 245 240 259
143 148 153 156 152 149 163 168 164 170 174 181 190 196 201 201 156 176 197 250 271 294 301 304 317 316 7 339 332 323 325 333 326 345 333 331 344 345 330 311 230 249 277
132 133 144 159 158 160 160 157 164 186 182 184 192 197 188 196 144 166 220 274 292 305 293 308 95 30 341 339 337 331 330 338 337 352 345 352 354 359 0 348 339 305 300
141 154 164 169 166 171 160 146 163 188 174 198 179 185 183 206 154 164 158 283 314 311 315 323 342 28 332 325 307 346 322 309 342 7 358 355 1 5 6 6 16 3 330
117 148 163 176 155 155 155 133 162 179 178 178 182 193 175 165 120 149 148 346 4 298 314 336 339 350 317 300 311 321 299 319 351 12 12 359 357 0 357 360 2 11 19
104 130 154 167 146 171 144 144 160 177 185 196 194 200 189 173 156 137 166 169 234 288 349 343 278 280 286 297 349 309 337 359 358 6 7 14 3 346 357 4 7 7 28
101 140 185 165 165 169 149 167 171 179 198 196 189 202 204 172 162 171 171 190 218 253 216 210 309 264 257 311 340 1 11 2 355 2 10 356 9 356 360 1 12 4 19
135 154 162 151 164 148 65 55 11 72 9 205 188 210 142 177 103 71 41 34 1 20 297 349 1 11 13 9 3 9 8 7 4 3 1 12 6 6 14 338 24 28 31
129 109 90 329 145 151 156 98 47 50 35 57 64 7 70 97 107 97 89 79 327 302 316 13 17 19 15 11 4 4 14 9 3 2 6 4 17 12 11 19 13 40 43
126 140 123 179 168 155 152 164 146 75 65 64 72 95 104 128 122 126 128 126 10 304 39 32 21 20 13 11 5 10 9 14 358 2 4 14 18 23 11 22 22 18 44
75 82 138 149 173 176 162 154 157 167 146 113 75 109 122 128 136 152 185 237 131 74 49 30 23 18 12 14 8 7 11 6 12 9 6 10 10 16 35 27 24 26 21
170 153 161 153 163 145 144 166 179 168 140 138 128 133 115 120 142 192 232 29 50 50 41 46 26 21 18 15 9 3 7 11 3 10 14 10 13 12 21 26 47 37 15
137 78 160 157 140 173 177 193 165 159 159 156 167 153 148 150 155 151 148 96 73 50 40 44 44 28 27 14 13 7 11 14 11 11 11 11 7 11 14 16 22 28 40
137 132 359 218 191 190 184 175 184 189 170 168 167 152 141 154 153 169 110 101 84 65 51 31 35 37 28 27 14 8 17 20 17 8 8 11 9 17 18 8 15 27 16
144 145 172 228 174 200 177 189 195 174 180 165 152 125 125 150 158 162 121 122 102 77 65 55 37 41 35 25 13 7 15 17 15 4 1 1 12 5 11 22 25 21 28
170 170 163 189 193 108 176 189 170 159 157 171 152 154 156 156 171 114 144 120 114 93 80 56 46 52 38 41 32 24 13 8 358 359 351 355 10 358 12 17 23 26 34
146 150 166 155 176 182 166 181 165 165 159 149 139 146 139 150 182 163 130 123 119 109 99 87 67 51 46 40 38 36 28 7 341 354 341 355 5 359 11 17 29 24 28
169 190 186 176 199 173 168 155 138 123 119 134 145 144 153 185 170 139 133 138 129 114 94 88 87 83 65 53 47 37 23 6 356 336 331 6 9 357 18 27 14 33 28
164 178 187 202 193 180 140 163 149 150 147 141 137 151 180 176 151 141 141 143 142 117 113 100 92 76 67 66 52 35 20 8 359 340 324 8 13 24 358 28 21 29 39